Location: Unspecified
(35.6961°N, 0.0000°E)
Time: 01:44:05
(UTC+00:00)

ISS - Visible Passes

Search period start: 15 October 2019 00:00
Search period end: 25 October 2019 00:00
Orbit: 411 x 421 km, 51.6° (Epoch: 14 October)

Date Brightness Start Highest point End Pass type
(mag) Time Alt. Az. Time Alt. Az. Time Alt. Az.
21 Oct -0.7 05:35:01 10° SSE 05:37:06 16° SE 05:39:11 10° E visible
23 Oct -2.8 05:33:11 10° SSW 05:36:27 51° SE 05:39:44 10° ENE visible
24 Oct -1.7 04:45:08 10° S 04:47:59 26° SE 04:50:52 10° ENE visible
